Weather History for EGQL - December, 2012

Change the Weather History Date:

Thursday, December 6, 2012

  Actual Average Record
Temperature  
Mean Temperature 32 °F -  
Max Temperature 38 °F 42 °F 55 °F (1997)
Min Temperature 26 °F 34 °F 17 °F (2010)
Degree Days  
Heating Degree Days 33    
Moisture  
Dew Point 30 °F    
Average Humidity 84    
Maximum Humidity 100    
Minimum Humidity 60    
Precipitation  
Precipitation 0.04 in - - ()
Sea Level Pressure  
Sea Level Pressure 29.51 in    
Wind  
Wind Speed 10 mph ()    
Max Wind Speed 23 mph    
Max Gust Speed -    
Visibility 7.4 miles    
Events Rain , Snow    
Averages and records for this station are not official NWS values.
T = Trace of Precipitation, MM = Missing Value Source: Averaged Metar Reports

Daily Weather History Graph

Daily Weather History Graph

Search for Another Location

Airport or City:

Trip Planner

Search our weather history database for the weather conditions in past years. The results will help you decide how hot, cold, wet, or windy it might be!

Date:

Astronomy

Dec. 06, 2012 Rise Set
Actual Time 8:28 AM GMT 3:36 PM GMT
Civil Twilight 7:41 AM GMT 4:23 PM GMT
Nautical Twilight 6:52 AM GMT 5:12 PM GMT
Astronomical Twilight 6:07 AM GMT 5:57 PM GMT
Moon No Moon Rise 12:10 PM GMT (12/6)
Length of Visible Light 8h 41m
Length of Day
7h 07m
Waning Gibbous, 52% of the Moon is Illuminated
Dec 6
Waning Gibbous
Dec 6
Last Quarter
Dec 13
New
Dec 20
First Quarter
Dec 28
Full

Hourly Weather History & Observations

Time (GMT) Temp. Windchill Dew Point Humidity Pressure Visibility Wind Dir Wind Speed Gust Speed Precip Events Conditions
12:50 AM 26.6 °F 16.2 °F 19.4 °F 74% 29.92 in - West 11.5 mph - N/A   Clear
1:50 AM 28.4 °F 19.1 °F 19.4 °F 69% 29.89 in - West 10.4 mph - N/A   Clear
2:50 AM 28 °F - 20 °F 60% 29.88 in 19 mi West 6.9 mph - -   Scattered Clouds
2:50 AM 28.4 °F 21.2 °F 19.4 °F 69% 29.86 in 6.2 mi West 6.9 mph - N/A   Mostly Cloudy
3:50 AM 28.4 °F 18.5 °F 21.2 °F 74% 29.83 in - WSW 11.5 mph - N/A   Clear
4:50 AM 30.2 °F 21.9 °F 21.2 °F 69% 29.80 in 6.2 mi WSW 9.2 mph - N/A   Mostly Cloudy
5:50 AM 31 °F - 24 °F 66% 29.78 in 25 mi WSW 10.4 mph - -   Overcast
5:50 AM 32.0 °F 23.6 °F 24.8 °F 75% 29.77 in 6.2 mi WSW 10.4 mph - N/A   Overcast
6:50 AM 33.8 °F 25.8 °F 26.6 °F 75% 29.71 in 6.2 mi SW 10.4 mph - N/A   Overcast
7:50 AM 37.4 °F 28.2 °F 30.2 °F 75% 29.65 in 6.2 mi SW 16.1 mph - N/A   Mostly Cloudy
8:50 AM 38 °F - 30 °F 64% 29.62 in 16 mi SW 21.9 mph - -   Scattered Clouds
8:50 AM 37.4 °F 26.6 °F 30.2 °F 75% 29.59 in 6.2 mi SW 21.9 mph - N/A   Mostly Cloudy
9:50 AM 37.4 °F 26.4 °F 33.8 °F 87% 29.56 in 6.2 mi SW 23.0 mph - N/A Rain Light Rain
10:50 AM 39.2 °F 29.0 °F 33.8 °F 81% 29.50 in 6.2 mi SW 21.9 mph - N/A Rain Light Rain
11:50 AM 38 °F - 35 °F 82% 29.48 in 12 mi SW 20.7 mph - - Rain Light Rain
11:50 AM 37.4 °F 26.9 °F 33.8 °F 87% 29.47 in 6.2 mi SW 20.7 mph - N/A Rain Light Rain
12:50 PM 37.4 °F 26.4 °F 33.8 °F 87% 29.44 in 6.2 mi WSW 23.0 mph - N/A Rain Light Rain
2:50 PM 36 °F - 34 °F 91% 29.38 in 16 mi WSW 15.0 mph - - Rain Light Rain
2:50 PM 37.4 °F 28.5 °F 33.8 °F 87% 29.36 in 6.2 mi WSW 15.0 mph - N/A Rain Light Rain
3:50 PM 35.6 °F 29.9 °F 33.8 °F 93% 29.33 in 6.2 mi West 6.9 mph - N/A Rain Light Rain
4:50 PM 35.6 °F 30.7 °F 33.8 °F 93% 29.30 in 6.2 mi WSW 5.8 mph - N/A Rain Light Rain
5:50 PM 34 °F - 33 °F 95% 29.29 in 9 mi WSW 4.6 mph - - Rain Light Rain
5:50 PM 33.8 °F 29.6 °F 33.8 °F 100% 29.27 in - WSW 4.6 mph - N/A   Clear
6:50 PM 33.8 °F - 33.8 °F 100% 29.27 in 5.0 mi Calm Calm - N/A Rain , Snow Light Rain
7:09 PM 33.8 °F - 32.0 °F 93% 29.27 in 3.7 mi NNE 2.3 mph - N/A Rain , Snow Light Rain
7:50 PM 33.8 °F 29.6 °F 32.0 °F 93% 29.27 in 3.7 mi North 4.6 mph - N/A Rain , Snow Rain
8:50 PM 34 °F - 33 °F 93% 29.27 in 3 mi NNW 2.3 mph - - Snow Heavy Snow
8:50 PM 33.8 °F - 32.0 °F 93% 29.27 in 3.1 mi NNW 2.3 mph - N/A Rain , Snow Rain
9:50 PM 33.8 °F - 33.8 °F 100% 29.27 in 3.7 mi NW 2.3 mph - N/A Rain Light Rain
10:50 PM 33.8 °F 30.8 °F 33.8 °F 100% 29.30 in 5.6 mi NW 3.5 mph - N/A Rain Light Rain
11:50 PM 34 °F - 33 °F 94% 29.34 in 12 mi NNW 4.6 mph - - Rain Light Rain
11:50 PM 33.8 °F 29.6 °F 33.8 °F 100% 29.33 in 6.2 mi NNW 4.6 mph - N/A   Overcast